Regional Weather Roundup
Issued by NWS Tiyan, Guam

Home | Current Version | Previous Version | Text Only | Print | Product List | Glossary On
Versions: 1 2 3 4 5 6 7 8 9 10 11 12 13 14 15 16 17 18 19 20 21 22 23 24 25 26 27 28 29 30 31 32 33 34 35 36 37 38 39 40 41 42 43 44 45 46 47 48 49 50
000
ASGM40 PGUM 212112
RWRGUM
WEATHER ROUNDUP FOR THE MARIANAS
NATIONAL WEATHER SERVICE TIYAN GU
700 AM CHST THU FEB 22 2018

GUZ001>004-212200-
MARIANA ISLANDS-

CITY           SKY/WX    TMP DP  RH WIND       PRES   REMARKS
GUAM AIRPORT   CLOUDY    79  73  83 NE10      29.87R
ANDERSEN AFB   MOCLDY    79  72  78 NE15      29.87R
ROTA AIRPORT   MOCLDY    77  70  78 NE15      29.86R
TINIAN AP      MOCLDY    77  75  94 NE14      29.85
SAIPAN AP      PTCLDY    79  73  83 NE10      29.87R

$$




USA.gov is the U.S. government's official web portal to all federal, state and local government web resources and services.